User: anonymous   Login
Location: Dumpton Point
(51.3500°N, 1.4433°E)
Time: 17:02:47
(UTC+00:00)
Language:

Cosmos 2082 Rocket - Orbit

View from above orbital plane
View from above orbital plane
View from above satellite
View from above satellite

Ground track
Ground track

The orbit data is extracted from the following two-line orbital elements,

1 20625U 90046B   20196.30425513 -.00000048  00000-0 -27754-6 0  9990
2 20625  70.9994 311.8396 0015302 208.4486 151.5803 14.14652152556661
Epoch (UTC): 14 July 2020 07:18:07
Eccentricity: 0.0015302
inclination: 70.9994°
perigee height: 832 km
apogee height: 854 km
right ascension of ascending node: 311.8396°
argument of perigee: 208.4486°
revolutions per day: 14.14652152
mean anomaly at epoch: 151.5803°
orbit number at epoch: 55666

The dashed part of the orbit path shows where the satellite is in the earth's shadow,  

DLR